Météo par heure à Allmend

Ce jour, 15 Mai, Samedi

Heure Température Précipitation Vent Pression Humidité
00:00 +3°C° 0 mm 2 m/s 687 mmHg 92%
01:00 +3°C° 0 mm 2 m/s 686 mmHg 92%
02:00 +2°C° 0 mm 2 m/s 686 mmHg 92%
03:00 +2°C° 0 mm 2 m/s 686 mmHg 92%
04:00 +3°C° 0 mm 1 m/s 685 mmHg 92%
05:00 +4°C° 0 mm 1 m/s 685 mmHg 90%
06:00 +5°C° 0 mm 1 m/s 685 mmHg 87%
07:00 +5°C° 0 mm 0 m/s 686 mmHg 85%
08:00 +7°C° 0 mm 0 m/s 685 mmHg 78%
09:00 +9°C° 0 mm 1 m/s 685 mmHg 71%
10:00 +11°C° 0 mm 1 m/s 685 mmHg 63%
11:00 +11°C° 0.1 mm 1 m/s 685 mmHg 63%
12:00 +10°C° 0.1 mm 2 m/s 685 mmHg 63%
13:00 +10°C° 0.1 mm 2 m/s 684 mmHg 63%
14:00 +9°C° 0.7 mm 2 m/s 684 mmHg 73%
15:00 +8°C° 0.7 mm 2 m/s 684 mmHg 83%
16:00 +8°C° 0.7 mm 1 m/s 684 mmHg 93%
17:00 +8°C° 0.8 mm 1 m/s 684 mmHg 95%
18:00 +8°C° 0.8 mm 1 m/s 684 mmHg 96%
19:00 +8°C° 0.8 mm 1 m/s 684 mmHg 97%
20:00 +7°C° 0.7 mm 1 m/s 684 mmHg 97%
21:00 +7°C° 0.7 mm 1 m/s 684 mmHg 97%
22:00 +7°C° 0.7 mm 1 m/s 685 mmHg 97%
23:00 +7°C° 1.4 mm 1 m/s 685 mmHg 97%

Demain, 16 Mai, Dimanche

Heure Température Précipitation Vent Pression Humidité
00:00 +7°C° 1.4 mm 1 m/s 685 mmHg 97%
01:00 +7°C° 1.4 mm 1 m/s 685 mmHg 98%
02:00 +7°C° 0.5 mm 1 m/s 684 mmHg 97%
03:00 +7°C° 0.5 mm 1 m/s 684 mmHg 97%
04:00 +7°C° 0.5 mm 1 m/s 684 mmHg 97%
05:00 +7°C° 0.2 mm 1 m/s 684 mmHg 96%
06:00 +7°C° 0.2 mm 0 m/s 683 mmHg 96%
07:00 +7°C° 0.2 mm 0 m/s 683 mmHg 95%
08:00 +9°C° 0.2 mm 1 m/s 683 mmHg 90%
09:00 +11°C° 0.2 mm 1 m/s 683 mmHg 85%
10:00 +12°C° 0.2 mm 1 m/s 683 mmHg 80%
11:00 +12°C° 0.9 mm 2 m/s 683 mmHg 83%
12:00 +10°C° 0.9 mm 2 m/s 683 mmHg 87%
13:00 +10°C° 0.9 mm 3 m/s 683 mmHg 91%
14:00 +10°C° 1.6 mm 3 m/s 683 mmHg 91%
15:00 +9°C° 1.6 mm 3 m/s 683 mmHg 92%
16:00 +9°C° 1.6 mm 3 m/s 683 mmHg 93%
17:00 +9°C° 1.1 mm 3 m/s 684 mmHg 94%
18:00 +8°C° 1.1 mm 3 m/s 684 mmHg 94%
19:00 +8°C° 1.1 mm 3 m/s 684 mmHg 94%
20:00 +7°C° 0.4 mm 3 m/s 684 mmHg 94%
21:00 +7°C° 0.4 mm 3 m/s 684 mmHg 93%
22:00 +6°C° 0.4 mm 2 m/s 685 mmHg 92%
23:00 +6°C° 0 mm 2 m/s 685 mmHg 92%

Après-demain, 17 Mai, Lundi

Heure Température Précipitation Vent Pression Humidité
00:00 +5°C° 0 mm 2 m/s 685 mmHg 92%
01:00 +3°C° 0 mm 3 m/s 685 mmHg 92%
02:00 +3°C° 0 mm 3 m/s 685 mmHg 91%
03:00 +4°C° 0 mm 2 m/s 685 mmHg 91%
04:00 +4°C° 0 mm 2 m/s 685 mmHg 91%
05:00 +5°C° 0 mm 2 m/s 685 mmHg 90%
06:00 +6°C° 0 mm 2 m/s 686 mmHg 89%
07:00 +5°C° 0 mm 3 m/s 686 mmHg 87%
08:00 +7°C° 0.1 mm 3 m/s 686 mmHg 79%
09:00 +9°C° 0.1 mm 3 m/s 686 mmHg 72%
10:00 +10°C° 0.1 mm 4 m/s 686 mmHg 64%
11:00 +10°C° 0.4 mm 4 m/s 686 mmHg 63%
12:00 +10°C° 0.4 mm 5 m/s 686 mmHg 62%
13:00 +10°C° 0.4 mm 5 m/s 687 mmHg 61%
14:00 +10°C° 0.4 mm 5 m/s 687 mmHg 61%
15:00 +12°C° 0.4 mm 5 m/s 687 mmHg 60%
16:00 +12°C° 0.4 mm 4 m/s 687 mmHg 60%
17:00 +11°C° 0.3 mm 4 m/s 687 mmHg 66%
18:00 +10°C° 0.3 mm 3 m/s 687 mmHg 72%
19:00 +8°C° 0.3 mm 2 m/s 687 mmHg 79%
20:00 +8°C° 0.3 mm 3 m/s 687 mmHg 84%
21:00 +7°C° 0.3 mm 3 m/s 688 mmHg 89%
22:00 +5°C° 0.3 mm 3 m/s 688 mmHg 94%
23:00 +5°C° 1.1 mm 3 m/s 688 mmHg 94%

18 Mai, Mardi

Heure Température Précipitation Vent Pression Humidité
00:00 +5°C° 1.1 mm 3 m/s 688 mmHg 95%
01:00 +4°C° 1.1 mm 3 m/s 688 mmHg 96%
02:00 +4°C° 0.2 mm 3 m/s 688 mmHg 96%
03:00 +4°C° 0.2 mm 3 m/s 689 mmHg 95%
04:00 +5°C° 0.2 mm 2 m/s 689 mmHg 95%
05:00 +4°C° 0.1 mm 3 m/s 689 mmHg 93%
06:00 +5°C° 0.1 mm 3 m/s 689 mmHg 91%
07:00 +5°C° 0.1 mm 3 m/s 690 mmHg 89%
08:00 +6°C° 0.3 mm 4 m/s 690 mmHg 84%
09:00 +6°C° 0.3 mm 4 m/s 690 mmHg 79%
10:00 +7°C° 0.3 mm 5 m/s 691 mmHg 74%
11:00 +8°C° 0.4 mm 5 m/s 691 mmHg 70%
12:00 +8°C° 0.4 mm 5 m/s 691 mmHg 67%
13:00 +9°C° 0.4 mm 5 m/s 691 mmHg 63%
14:00 +7°C° 0.8 mm 4 m/s 691 mmHg 73%
15:00 +6°C° 0.8 mm 4 m/s 691 mmHg 83%
16:00 +5°C° 0.8 mm 3 m/s 692 mmHg 93%
17:00 +5°C° 0.7 mm 3 m/s 692 mmHg 94%
18:00 +6°C° 0.7 mm 2 m/s 692 mmHg 94%
19:00 +6°C° 0.7 mm 2 m/s 692 mmHg 94%
20:00 +5°C° 0.3 mm 2 m/s 693 mmHg 94%
21:00 +5°C° 0.3 mm 2 m/s 693 mmHg 95%
22:00 +4°C° 0.3 mm 2 m/s 693 mmHg 95%
23:00 +4°C° 0.1 mm 2 m/s 693 mmHg 95%

19 Mai, Mercredi

Heure Température Précipitation Vent Pression Humidité
00:00 +4°C° 0.1 mm 2 m/s 693 mmHg 94%
01:00 +4°C° 0.1 mm 2 m/s 693 mmHg 94%
02:00 +3°C° 0 mm 2 m/s 693 mmHg 93%
03:00 +3°C° 0 mm 2 m/s 693 mmHg 93%
04:00 +3°C° 0 mm 2 m/s 692 mmHg 92%
05:00 +3°C° 0.4 mm 2 m/s 693 mmHg 93%
06:00 +4°C° 0.4 mm 2 m/s 693 mmHg 93%
07:00 +5°C° 0.4 mm 2 m/s 693 mmHg 94%
08:00 +4°C° 0.2 mm 3 m/s 693 mmHg 91%
09:00 +5°C° 0.2 mm 3 m/s 693 mmHg 89%
10:00 +7°C° 0.2 mm 3 m/s 693 mmHg 86%
11:00 +7°C° 0.7 mm 3 m/s 693 mmHg 87%
12:00 +8°C° 0.7 mm 3 m/s 693 mmHg 89%
13:00 +8°C° 0.7 mm 3 m/s 693 mmHg 90%
14:00 +8°C° 0.9 mm 3 m/s 693 mmHg 88%
15:00 +8°C° 0.9 mm 3 m/s 694 mmHg 87%
16:00 +8°C° 0.9 mm 2 m/s 694 mmHg 85%
17:00 +8°C° 0.7 mm 2 m/s 694 mmHg 87%
18:00 +7°C° 0.7 mm 2 m/s 694 mmHg 89%
19:00 +8°C° 0.7 mm 1 m/s 694 mmHg 91%
20:00 +7°C° 0.2 mm 1 m/s 694 mmHg 92%
21:00 +6°C° 0.2 mm 1 m/s 694 mmHg 93%
22:00 +4°C° 0.2 mm 2 m/s 695 mmHg 94%
23:00 +4°C° 0 mm 2 m/s 694 mmHg 93%

20 Mai, Jeudi

Heure Température Précipitation Vent Pression Humidité
00:00 +3°C° 0 mm 2 m/s 694 mmHg 92%
01:00 +2°C° 0 mm 2 m/s 694 mmHg 92%
02:00 +2°C° 0 mm 2 m/s 694 mmHg 91%
03:00 +1°C° 0 mm 2 m/s 694 mmHg 90%
04:00 +1°C° 0 mm 2 m/s 693 mmHg 89%
05:00 +4°C° 0 mm 1 m/s 693 mmHg 86%
06:00 +5°C° 0 mm 1 m/s 693 mmHg 84%
07:00 +6°C° 0 mm 0 m/s 693 mmHg 81%
08:00 +9°C° 0 mm 1 m/s 693 mmHg 73%
09:00 +10°C° 0 mm 1 m/s 692 mmHg 65%
10:00 +12°C° 0 mm 1 m/s 692 mmHg 57%
11:00 +13°C° 0 mm 2 m/s 692 mmHg 54%
12:00 +14°C° 0 mm 2 m/s 692 mmHg 51%
13:00 +14°C° 0 mm 3 m/s 692 mmHg 48%
14:00 +15°C° 0 mm 2 m/s 691 mmHg 50%
15:00 +16°C° 0 mm 2 m/s 691 mmHg 53%
16:00 +16°C° 0 mm 2 m/s 691 mmHg 56%
17:00 +14°C° 0.4 mm 2 m/s 690 mmHg 66%
18:00 +13°C° 0.4 mm 2 m/s 690 mmHg 77%
19:00 +12°C° 0.4 mm 2 m/s 690 mmHg 88%
20:00 +10°C° 0.4 mm 2 m/s 690 mmHg 89%
21:00 +10°C° 0.4 mm 2 m/s 690 mmHg 91%
22:00 +9°C° 0.4 mm 3 m/s 690 mmHg 93%
23:00 +9°C° 0.1 mm 2 m/s 690 mmHg 93%
Voir plus

Nous avons besoin de votre consentement

Meteoprog et ses fournisseurs de services peuvent stocker et accéder à des données personnelles telles que des cookies, des identifiants d'appareils ou d'autres technologies similaires sur votre appareil et traiter ces données pour personnaliser le contenu et les publicités, ainsi que pour fournir des fonctionnalités de médias sociaux et analyser le trafic.

  • Stocker et/ou accéder à des informations sur votre appareil

    Des cookies, des identifiants d'appareils ou d'autres informations peuvent être stockés ou accessibles sur votre appareil aux fins indiquées ci-dessus.

  • Annonces et contenus personnalisés, mesure des annonces et des contenus, connaissance de l'audience et développement de produits

    Les annonces et le contenu peuvent être personnalisés en fonction d'un profil. D'autres données peuvent être ajoutées pour mieux personnaliser les annonces et le contenu. Les performances des publicités et du contenu peuvent être mesurées. Il est possible d'obtenir des informations sur le public qui a vu les publicités et le contenu. Ces données peuvent être utilisées pour développer ou améliorer l'expérience de l'utilisateur, les systèmes et les logiciels.

En cliquant sur "J'accepte", vous autorisez l'utilisation de cookies, des identifiants d'appareils, des balises web ou d'autres technologies similaires. Vos paramètres peuvent être modifiés dans le navigateur de votre appareil.

Dans certains cas, des intérêts légitimes peuvent être invoqués plutôt qu'un consentement. Vous pouvez en savoir plus à ce sujet dans notre Politique de confidentialité et de cookies.